Presque Isle, ME

8:05 AM EST on February 23, 2018 (GMT -0500)
Northern Maine Regional At Presque Isle

Weather History for KPQI - October, 2013

Change the Weather History Date:

Monday, October 7, 2013

  Actual Average Record
Temperature  
Mean Temperature 54 °F -  
Max Temperature 66 °F 58 °F 78 °F (1946)
Min Temperature 42 °F 37 °F 20 °F (1965)
Degree Days  
Heating Degree Days 11    
Growing Degree Days 4 (Base 50)    
Moisture  
Dew Point 47 °F    
Average Humidity 81    
Maximum Humidity 88    
Minimum Humidity 57    
Precipitation  
Precipitation 0.27 in - - ()
Sea Level Pressure  
Sea Level Pressure 29.98 in    
Wind  
Wind Speed 14 mph (SSE)    
Max Wind Speed 28 mph    
Max Gust Speed 43 mph    
Visibility 10 miles    
Events      
Averages and records for this station are not official NWS values.
T = Trace of Precipitation, MM = Missing Value Source: NWS Daily Summary

Daily Weather History Graph

Daily Weather History Graph

Search for Another Location

Airport or City:

Trip Planner

Search our weather history database for the weather conditions in past years. The results will help you decide how hot, cold, wet, or windy it might be!

Date:

Astronomy

Oct. 07, 2013 Rise Set
Actual Time 6:39 AM EDT 5:59 PM EDT
Civil Twilight 6:08 AM EDT 6:30 PM EDT
Nautical Twilight 5:33 AM EDT 7:05 PM EDT
Astronomical Twilight 4:58 AM EDT 7:40 PM EDT
Moon 9:36 AM EDT (10/7) 7:29 PM EDT (10/7)
Length of Visible Light 12h 21m
Length of Day
11h 20m
Waxing Crescent, 8% of the Moon is Illuminated
Oct 7
Waxing Crescent
Oct 11
First Quarter
Oct 18
Full
Oct 26
Last Quarter
Nov 3
New

Hourly Weather History & Observations

Time (EDT) Temp. Windchill Dew Point Humidity Pressure Visibility Wind Dir Wind Speed Gust Speed Precip Events Conditions
12:15 AM 48.2 °F - 35.6 °F 62% 30.19 in 10.0 mi South 11.5 mph - N/A   Overcast
12:35 AM 48.2 °F - 37.4 °F 66% 30.19 in 10.0 mi South 10.4 mph - N/A   Overcast
12:55 AM 48.2 °F - 37.4 °F 66% 30.19 in 10.0 mi South 10.4 mph - N/A   Overcast
1:15 AM 48.2 °F - 37.4 °F 66% 30.19 in 10.0 mi South 10.4 mph - N/A   Overcast
1:35 AM 48.2 °F - 35.6 °F 62% 30.18 in 10.0 mi SSE 11.5 mph - N/A   Overcast
1:55 AM 46.4 °F 40.7 °F 35.6 °F 66% 30.18 in 10.0 mi South 12.7 mph - N/A   Overcast
2:15 AM 46.4 °F 40.1 °F 33.8 °F 62% 30.17 in 10.0 mi South 15.0 mph 20.7 mph N/A   Overcast
2:35 AM 46.4 °F 40.4 °F 32.0 °F 57% 30.17 in 10.0 mi SSE 13.8 mph 24.2 mph N/A   Overcast
2:55 AM 46.4 °F 39.2 °F 33.8 °F 62% 30.16 in 10.0 mi South 18.4 mph 26.5 mph N/A   Overcast
3:15 AM 44.6 °F 37.8 °F 35.6 °F 71% 30.17 in 10.0 mi South 15.0 mph 19.6 mph N/A   Overcast
3:35 AM 44.6 °F 38.8 °F 37.4 °F 76% 30.17 in 10.0 mi South 11.5 mph - N/A   Overcast
3:55 AM 42.8 °F 36.2 °F 37.4 °F 81% 30.17 in 10.0 mi SSE 12.7 mph 19.6 mph N/A   Overcast
4:15 AM 42.8 °F 36.2 °F 37.4 °F 81% 30.16 in 10.0 mi SSE 12.7 mph - N/A   Overcast
4:35 AM 42.8 °F 35.4 °F 37.4 °F 81% 30.16 in 10.0 mi SSE 15.0 mph 21.9 mph N/A   Overcast
4:55 AM 42.8 °F 35.1 °F 37.4 °F 81% 30.14 in 10.0 mi SSE 16.1 mph 20.7 mph N/A   Overcast
5:15 AM 42.8 °F 35.4 °F 37.4 °F 81% 30.14 in 10.0 mi SSE 15.0 mph 19.6 mph N/A   Overcast
5:35 AM 42.8 °F 36.6 °F 37.4 °F 81% 30.14 in 10.0 mi SSE 11.5 mph - N/A   Overcast
5:55 AM 42.8 °F 35.8 °F 39.2 °F 87% 30.14 in 10.0 mi SSE 13.8 mph - N/A   Overcast
6:15 AM 44.6 °F 38.8 °F 39.2 °F 81% 30.13 in 10.0 mi SSE 11.5 mph - N/A   Overcast
6:35 AM 44.6 °F 38.8 °F 39.2 °F 81% 30.13 in 10.0 mi SSE 11.5 mph - N/A   Overcast
6:55 AM 44.6 °F 39.2 °F 39.2 °F 81% 30.13 in 10.0 mi SSE 10.4 mph - N/A   Overcast
7:15 AM 44.6 °F 38.8 °F 39.2 °F 81% 30.13 in 10.0 mi SSE 11.5 mph 16.1 mph N/A   Overcast
7:35 AM 44.6 °F 39.2 °F 39.2 °F 81% 30.13 in 10.0 mi SSE 10.4 mph 17.3 mph N/A   Overcast
7:55 AM 44.6 °F 39.2 °F 39.2 °F 81% 30.13 in 10.0 mi SE 10.4 mph 17.3 mph N/A   Overcast
8:15 AM 44.6 °F 38.8 °F 39.2 °F 81% 30.12 in 10.0 mi SSE 11.5 mph - N/A   Overcast
8:35 AM 46.4 °F 39.8 °F 39.2 °F 76% 30.12 in 10.0 mi SSE 16.1 mph 20.7 mph N/A   Overcast
8:55 AM 46.4 °F 40.1 °F 41.0 °F 81% 30.11 in 10.0 mi SSE 15.0 mph 23.0 mph N/A   Overcast
9:15 AM 46.4 °F 40.4 °F 41.0 °F 81% 30.10 in 10.0 mi South 13.8 mph 20.7 mph N/A   Overcast
9:35 AM 46.4 °F 40.7 °F 42.8 °F 87% 30.10 in 10.0 mi South 12.7 mph 19.6 mph N/A   Overcast
9:55 AM 46.4 °F 40.1 °F 42.8 °F 87% 30.09 in 8.0 mi South 15.0 mph 19.6 mph N/A   Overcast
10:15 AM 48.2 °F - 42.8 °F 82% 30.09 in 10.0 mi South 17.3 mph 20.7 mph N/A   Overcast
10:35 AM 48.2 °F - 44.6 °F 87% 30.07 in 9.0 mi SSE 18.4 mph 24.2 mph N/A   Overcast
10:55 AM 48.2 °F - 44.6 °F 87% 30.07 in 10.0 mi SSE 17.3 mph - N/A   Overcast
11:15 AM 50.0 °F - 44.6 °F 82% 30.05 in 10.0 mi SSE 17.3 mph 23.0 mph N/A   Overcast
11:35 AM 51.8 °F - 46.4 °F 82% 30.06 in 10.0 mi SSE 13.8 mph 23.0 mph N/A   Overcast
11:55 AM 50.0 °F - 46.4 °F 87% 30.04 in 10.0 mi SSE 12.7 mph 19.6 mph N/A   Overcast
12:15 PM 51.8 °F - 46.4 °F 82% 30.04 in 10.0 mi SSE 12.7 mph 19.6 mph N/A   Overcast
12:35 PM 51.8 °F - 46.4 °F 82% 30.03 in 10.0 mi SSE 12.7 mph - N/A   Overcast
12:55 PM 53.6 °F - 48.2 °F 82% 30.01 in 10.0 mi SSE 11.5 mph - N/A   Overcast
1:15 PM 53.6 °F - 48.2 °F 82% 30.00 in 10.0 mi SSE 8.1 mph - N/A   Overcast
1:35 PM 53.6 °F - 48.2 °F 82% 29.98 in 10.0 mi SSE 11.5 mph 17.3 mph N/A   Overcast
1:55 PM 55.4 °F - 50.0 °F 82% 29.98 in 10.0 mi SSE 13.8 mph 19.6 mph N/A   Overcast
2:15 PM 55.4 °F - 50.0 °F 82% 29.97 in 10.0 mi SSE 13.8 mph 20.7 mph N/A   Overcast
2:35 PM 55.4 °F - 50.0 °F 82% 29.95 in 10.0 mi SSE 16.1 mph 19.6 mph N/A   Overcast
2:55 PM 55.4 °F - 51.8 °F 88% 29.93 in 10.0 mi SSE 16.1 mph 21.9 mph N/A   Overcast
3:15 PM 55.4 °F - 51.8 °F 88% 29.93 in 10.0 mi South 15.0 mph 24.2 mph N/A   Overcast
3:35 PM 55.4 °F - 51.8 °F 88% 29.92 in 10.0 mi SSE 15.0 mph 19.6 mph N/A   Overcast
3:55 PM 55.4 °F - 51.8 °F 88% 29.90 in 10.0 mi SSE 12.7 mph 19.6 mph N/A   Overcast
4:15 PM 55.4 °F - 51.8 °F 88% 29.88 in 8.0 mi SSE 13.8 mph 23.0 mph N/A   Overcast
4:35 PM 57.2 °F - 53.6 °F 88% 29.87 in 7.0 mi SSE 17.3 mph 26.5 mph N/A   Overcast
4:55 PM 57.2 °F - 53.6 °F 88% 29.86 in 8.0 mi SSE 16.1 mph 28.8 mph N/A   Overcast
5:15 PM 57.2 °F - 53.6 °F 88% 29.85 in 10.0 mi SSE 20.7 mph 27.6 mph N/A   Overcast
5:35 PM 57.2 °F - 53.6 °F 88% 29.84 in 10.0 mi SSE 18.4 mph 25.3 mph N/A   Overcast
5:55 PM 59.0 °F - 55.4 °F 88% 29.83 in 8.0 mi SSE 23.0 mph 28.8 mph N/A   Overcast
6:15 PM 60.8 °F - 55.4 °F 82% 29.81 in 9.0 mi SSE 23.0 mph 27.6 mph N/A   Overcast
6:35 PM 60.8 °F - 55.4 °F 82% 29.81 in 10.0 mi SSE 20.7 mph 27.6 mph N/A   Overcast
6:55 PM 60.8 °F - 55.4 °F 82% 29.80 in 10.0 mi SSE 20.7 mph 25.3 mph N/A   Overcast
7:15 PM 60.8 °F - 55.4 °F 82% 29.78 in 10.0 mi SSE 19.6 mph 29.9 mph N/A   Overcast
7:35 PM 62.6 °F - 57.2 °F 82% 29.77 in 10.0 mi SSE 23.0 mph 33.4 mph N/A   Overcast
7:55 PM 62.6 °F - 57.2 °F 82% 29.76 in 10.0 mi SSE 24.2 mph 31.1 mph N/A   Overcast
8:15 PM 62.6 °F - 57.2 °F 82% 29.74 in 10.0 mi South 20.7 mph 28.8 mph N/A   Overcast
8:35 PM 64.4 °F - 57.2 °F 77% 29.74 in 10.0 mi South 19.6 mph 27.6 mph N/A   Overcast
8:55 PM 64.4 °F - 59.0 °F 83% 29.72 in 10.0 mi South 26.5 mph 35.7 mph N/A   Overcast
9:15 PM 64.4 °F - 59.0 °F 83% 29.72 in 10.0 mi South 27.6 mph 36.8 mph N/A   Overcast
9:35 PM 66.2 °F - 59.0 °F 78% 29.70 in 10.0 mi South 26.5 mph 42.6 mph N/A   Overcast
9:55 PM 66.2 °F - 59.0 °F 78% 29.69 in 10.0 mi South 20.7 mph 39.1 mph N/A   Overcast
10:15 PM 64.4 °F - 60.8 °F 88% 29.68 in 5.0 mi South 25.3 mph 34.5 mph N/A   Overcast
10:35 PM 64.4 °F - 60.8 °F 88% 29.67 in 9.0 mi South 21.9 mph 29.9 mph N/A   Overcast
10:55 PM 64.4 °F - 60.8 °F 88% 29.68 in 8.0 mi WSW 10.4 mph 28.8 mph 0.01 in   Overcast
11:15 PM 64.4 °F - 60.8 °F 88% 29.68 in 7.0 mi SSW 12.7 mph - 0.25 in   Overcast
11:35 PM 64.4 °F - 60.8 °F 88% 29.67 in 10.0 mi SSW 15.0 mph 20.7 mph 0.25 in   Overcast
11:55 PM 66.2 °F - 60.8 °F 83% 29.67 in 9.0 mi SSW 15.0 mph 24.2 mph 0.26 in   Overcast